This is the latest recevied weather packets stored in our database for station/object VK5ARG-5. If no packets are shown the sender has not sent any weather packets the latest 10 day(s).
| Time | Temp. | Humidity | Pressure | Rain* | Wind** | Luminosity | Snow |
|---|---|---|---|---|---|---|---|
| 1777755921 | 10° C | 93% | - | 0 mm | - | - | - |
| 1777754720 | 10° C | 94% | - | 0 mm | - | - | - |
| 1777754128 | 10° C | 94% | - | 0 mm | - | - | - |
| 1777751126 | 10° C | 94% | - | 0 mm | - | - | - |
| 1777749323 | 10.56° C | 91% | - | 0 mm | - | - | - |
| 1777747520 | 10.56° C | 90% | - | 0 mm | - | - | - |
| 1777745123 | 10.56° C | 87% | - | 0 mm | - | - | - |
| 1777742122 | 10.56° C | 86% | - | 0 mm | - | - | - |
| 1777737327 | 11.11° C | 85% | - | 0 mm | - | - | - |
| 1777736723 | 11.11° C | 85% | - | 0 mm | - | - | - |
| 1777733722 | 11.11° C | 86% | - | 0 mm | - | - | - |
| 1777727124 | 12.22° C | 93% | - | 0 mm | - | - | - |
| 1777724122 | 12.78° C | 96% | - | 0 mm | - | - | - |
| 1777721725 | 13.33° C | 96% | - | 0 mm | - | - | - |
| 1777718745 | 13.33° C | 96% | - | 0 mm | - | - | - |
| 1777717544 | 13.33° C | 96% | - | 0 mm | - | - | - |
| 1777716922 | 13.33° C | 97% | - | 0 mm | - | - | - |
| 1777713929 | 13.33° C | 95% | - | 0.25 mm | - | - | - |
| 1777712128 | 12.78° C | 97% | - | 0.25 mm | - | - | - |
| 1777710928 | 12.22° C | 97% | - | 0.25 mm | - | - | - |
| 1777708522 | 13.33° C | 96% | - | 0 mm | - | - | - |
| 1777702527 | 13.89° C | 96% | - | 0 mm | - | - | - |
| 1777701328 | 13.89° C | 96% | - | 0 mm | - | - | - |
| 1777697129 | 13.89° C | 97% | - | 1.02 mm | - | - | - |
| 1777696525 | 13.33° C | 97% | - | 0.76 mm | - | - | - |
* Rain latest hour (hover to see other rain measurements)
** Current wind speed in m/s (hover to see current wind gust speed)